STARLINK-38133, 100216

Orbit data source: Space-Track

STARLINK-38133, 100216 is a payload satellite owned by SpaceX/Seattle (US) in SSO that was launched on Tue, 04 Aug 2026 UTC launched from the Air Force Western Test Range (AFWTR). Payload-class satellites include a variety of spacecraft equipped with specific instruments for various scientific and technological missions. These include communications satellites like Starlink; space stations such as the ISS; scientific satellites like the Hubble; Earth observation satellites from companies like Planet Labs, Umbra, and HawkEye 360; GPS; miniature CubeSats for education and research; and military/defense satellites.

Loading next visibility...
Identifier
100216, 2026-177D
Orbit
SSO
Country
Flag of USUS
Related business
Manufacturer
SpaceX/Seattle
Mission
Operational spacecraft
Bus & Motor
STARLINK V2MO, Unknown motor
Mass
575 kg wet, ~530 kg dry
Launch date (UTC)
2026-08-04 (1 month ago)
Launch vehicle
Unknown
Launch site
Air Force Western Test Range (AFWTR)
Object type
Payload
Rocket body
Debris
Shape & HBR
BOX + PAN, 17.7 m
Radar Cross Section
RCS unknown

Expand to show TLE details & history
Last TLE update: 8 hours ago

TLE from 8 hours ago
0 STARLINK-38133
1 A0216U 26177D   26255.91444881 -.00964013  00000-0 -11008-1 0  9997
2 A0216  97.2829 306.7536 0000899 152.0935 208.0373 15.64687364  6198
Epoch: 2026-09-12T21:56Z
TLE epoch observation values (Epoch: 2026-09-12T21:56:48.377Z)
Latitude
Longitude
-14.36459°
Altitude
377.828 km
Speed
7.683 km/s
True Right ascension
20h 27m 00s
True Declination
0° 00' 00"
Sunlit
Object was in full shadow at epoch
Visualization orbit readout
Latitude
Unknown
Longitude
Unknown
Altitude
Unknown
Speed
Unknown
Apparent Right ascension
Unknown
Apparent Declination
Unknown
Sunlit
N/A
Visualization observer readout
Local Sidereal Time
22:35:50
Azimuth
Unknown
Elevation
Unknown
Doppler factor
Unknown
Orbital elements
Apogee altitude
371.646 km
Perigee altitude
370.432 km
Semi-major axis
6,749.176 km
Eccentricity
0.00009
Inclination
97.2829°
RAAN
306.7536°
Arg. of periapsis
152.0935°
True anomaly
208.03246°
Mean anomaly
208.0373°
Eccentric anomaly
208.03488°
Mean motion
3.91442 °/min
Orbital period
91.97 mins
BSTAR
-0.011008
Loading maneuver chart data...
Computing Atmospheric mass density...
Loading historical data...
Loading historical data...
Loading historical data...
Loading historical data...
Loading historical data...
Loading historical data...
Loading historical data...

Documentation

Showing up to 5 results
|